Location: Recife
(8.0585°S, 34.8848°W)
Time: 13:11:16
(UTC-03:00)

Tiros 1 despin weight - Pass Details

Date: 19 April 2026
Orbit: 555 x 591 km, 48.2° (Epoch: 14 May)

Event Time Altitude Azimuth Distance (km) Brightness Sun altitude
Rises 09:55:10 0° 198° (SSW) 2,743 ? 61.6°
Reaches altitude 10° 09:57:54 10° 181° (S) 1,840 ? 62.1°
Maximum altitude 10:01:03 20° 133° (SE) 1,300 ? 62.7°
Drops below altitude 10° 10:04:10 10° 84° (E) 1,828 ? 63.2°
Sets 10:06:51 0° 67° (ENE) 2,718 ? 63.7°
